Find Starlink 30888

NORAD ID: 58370 Int'l Des: 2023-177 Owner: SPXS Country: US Constellation: starlink operational
LEOCIRCULAR

Live-Position

3D-Globus wird geladen...

Über Starlink 30888

Beschreibung wird geladen...

Nächste Überflüge

Passes for default location (London). Set your location on the main map for personalized predictions.

Höhenverlauf

Loading altitude history...

Zweizeiliger Elementsatz

1 58370U 23177V 26127.42642304 .00000271 00000-0 19373-4 0 9993
2 58370 43.0053 18.6063 0002306 253.7475 106.3123 15.27585263137223
Epoch: 7. Mai 2026 • Age: 16 hours

Aktueller Status

Höhe 487.3 km
Geschwindigkeit 7.63 km/s
Subsatellitenpunkt 41.74°N, 138.82°W
Startdatum 18. Nov. 2023
Alter 2.4 years
Typ internet

Technische Details

Klassifizierung Payload
Masse 730.00 kg
Trockenmasse 700.00 kg
Gesamtmasse 730.00 kg
Länge 0.30 m
Durchmesser 4.10 m
Spannweite 29.00 m
Form Box + pan
Hersteller SPXS
Bus-Typ Starlink V2M
Phasenstatus In Orbit
Besitzer/Staat SPXS/US

Most Searched